• In Netherlands
  • List of Countries
  • For 7 days
  • Water Temperature
  • Satellite Maps
  • Weather Map
  • Weather Widgets
  • user-avatar
    Login

    Hourly Weather Buenos Aires

    Today, 16 January, Tuesday

    Time Temperature Precipitation Wind Pressure Humidity
    00:00 +21°C° 0 mm 3 mps 760 mmHg 78%
    01:00 +21°C° 0 mm 3 mps 760 mmHg 80%
    02:00 +21°C° 0 mm 3 mps 760 mmHg 81%
    03:00 +20°C° 0 mm 2 mps 760 mmHg 82%
    04:00 +20°C° 0 mm 2 mps 761 mmHg 83%
    05:00 +20°C° 0 mm 2 mps 761 mmHg 85%
    06:00 +23°C° 0 mm 2 mps 761 mmHg 77%
    07:00 +24°C° 0 mm 2 mps 761 mmHg 69%
    08:00 +26°C° 0 mm 2 mps 761 mmHg 61%
    09:00 +28°C° 0 mm 2 mps 761 mmHg 54%
    10:00 +29°C° 0 mm 1 mps 761 mmHg 46%
    11:00 +31°C° 0 mm 1 mps 761 mmHg 38%
    12:00 +32°C° 0 mm 1 mps 761 mmHg 36%
    13:00 +32°C° 0 mm 2 mps 760 mmHg 34%
    14:00 +34°C° 0 mm 2 mps 759 mmHg 32%
    15:00 +34°C° 0 mm 2 mps 759 mmHg 33%
    16:00 +33°C° 0 mm 3 mps 759 mmHg 34%
    17:00 +33°C° 0 mm 3 mps 759 mmHg 34%
    18:00 +30°C° 0 mm 4 mps 759 mmHg 40%
    19:00 +29°C° 0 mm 4 mps 759 mmHg 46%
    20:00 +27°C° 0 mm 5 mps 759 mmHg 52%
    21:00 +26°C° 0 mm 5 mps 759 mmHg 58%
    22:00 +26°C° 0 mm 5 mps 759 mmHg 64%
    23:00 +25°C° 0 mm 4 mps 760 mmHg 70%

    Tomorrow, 17 January, Wednesday

    Time Temperature Precipitation Wind Pressure Humidity
    00:00 +25°C° 0 mm 4 mps 760 mmHg 71%
    01:00 +25°C° 0 mm 4 mps 759 mmHg 72%
    02:00 +25°C° 0 mm 4 mps 759 mmHg 73%
    03:00 +25°C° 0 mm 4 mps 759 mmHg 73%
    04:00 +25°C° 0 mm 4 mps 759 mmHg 72%
    05:00 +25°C° 0 mm 4 mps 759 mmHg 71%
    06:00 +26°C° 0 mm 3 mps 759 mmHg 70%
    07:00 +26°C° 0 mm 3 mps 759 mmHg 68%
    08:00 +27°C° 0 mm 2 mps 760 mmHg 67%
    09:00 +28°C° 0.2 mm 2 mps 760 mmHg 64%
    10:00 +28°C° 0.2 mm 2 mps 760 mmHg 61%
    11:00 +29°C° 0.2 mm 2 mps 759 mmHg 58%
    12:00 +29°C° 0.6 mm 2 mps 759 mmHg 59%
    13:00 +29°C° 0.6 mm 2 mps 759 mmHg 60%
    14:00 +28°C° 0.6 mm 2 mps 758 mmHg 61%
    15:00 +28°C° 0.3 mm 2 mps 758 mmHg 63%
    16:00 +27°C° 0.3 mm 2 mps 758 mmHg 65%
    17:00 +27°C° 0.3 mm 2 mps 758 mmHg 66%
    18:00 +26°C° 0.1 mm 2 mps 758 mmHg 68%
    19:00 +25°C° 0.1 mm 3 mps 758 mmHg 71%
    20:00 +25°C° 0.1 mm 3 mps 758 mmHg 73%
    21:00 +25°C° 0.1 mm 3 mps 758 mmHg 73%
    22:00 +24°C° 0.1 mm 3 mps 759 mmHg 74%
    23:00 +24°C° 0.1 mm 2 mps 759 mmHg 74%

    Day after tomorrow, 18 January, Thursday

    Time Temperature Precipitation Wind Pressure Humidity
    00:00 +24°C° 0.4 mm 2 mps 759 mmHg 75%
    01:00 +23°C° 0.4 mm 2 mps 758 mmHg 76%
    02:00 +23°C° 0.4 mm 2 mps 758 mmHg 76%
    03:00 +23°C° 0 mm 2 mps 758 mmHg 77%
    04:00 +23°C° 0 mm 2 mps 758 mmHg 78%
    05:00 +21°C° 0 mm 2 mps 758 mmHg 78%
    06:00 +24°C° 0 mm 2 mps 758 mmHg 72%
    07:00 +26°C° 0 mm 2 mps 759 mmHg 65%
    08:00 +27°C° 0 mm 2 mps 759 mmHg 58%
    09:00 +29°C° 0 mm 2 mps 759 mmHg 50%
    10:00 +31°C° 0 mm 2 mps 759 mmHg 43%
    11:00 +34°C° 0 mm 3 mps 759 mmHg 35%
    12:00 +35°C° 0 mm 3 mps 758 mmHg 33%
    13:00 +36°C° 0 mm 3 mps 758 mmHg 30%
    14:00 +37°C° 0 mm 3 mps 757 mmHg 28%
    15:00 +36°C° 0 mm 3 mps 757 mmHg 30%
    16:00 +36°C° 0 mm 3 mps 757 mmHg 32%
    17:00 +35°C° 0 mm 3 mps 757 mmHg 34%
    18:00 +33°C° 0 mm 4 mps 757 mmHg 41%
    19:00 +30°C° 0 mm 4 mps 757 mmHg 48%
    20:00 +28°C° 0 mm 4 mps 758 mmHg 54%
    21:00 +28°C° 0 mm 4 mps 758 mmHg 54%
    22:00 +27°C° 0 mm 4 mps 759 mmHg 54%
    23:00 +27°C° 0 mm 4 mps 759 mmHg 54%

    19 January, Friday

    Time Temperature Precipitation Wind Pressure Humidity
    00:00 +26°C° 0 mm 4 mps 759 mmHg 55%
    01:00 +26°C° 0 mm 3 mps 759 mmHg 55%
    02:00 +25°C° 0 mm 3 mps 759 mmHg 56%
    03:00 +25°C° 0 mm 3 mps 759 mmHg 57%
    04:00 +25°C° 0 mm 3 mps 759 mmHg 58%
    05:00 +24°C° 0 mm 2 mps 759 mmHg 59%
    06:00 +26°C° 0 mm 2 mps 760 mmHg 54%
    07:00 +28°C° 0 mm 2 mps 760 mmHg 49%
    08:00 +30°C° 0 mm 3 mps 760 mmHg 44%
    09:00 +32°C° 0 mm 2 mps 760 mmHg 39%
    10:00 +35°C° 0 mm 2 mps 760 mmHg 33%
    11:00 +37°C° 0 mm 2 mps 760 mmHg 27%
    12:00 +38°C° 0 mm 2 mps 759 mmHg 26%
    13:00 +39°C° 0 mm 3 mps 758 mmHg 24%
    14:00 +39°C° 0 mm 3 mps 757 mmHg 22%
    15:00 +39°C° 0 mm 3 mps 757 mmHg 23%
    16:00 +38°C° 0 mm 4 mps 757 mmHg 24%
    17:00 +37°C° 0 mm 4 mps 756 mmHg 26%
    18:00 +36°C° 0 mm 4 mps 756 mmHg 29%
    19:00 +34°C° 0 mm 4 mps 757 mmHg 33%
    20:00 +33°C° 0 mm 4 mps 757 mmHg 37%
    21:00 +32°C° 0 mm 4 mps 757 mmHg 38%
    22:00 +30°C° 0 mm 4 mps 757 mmHg 38%
    23:00 +30°C° 0 mm 4 mps 758 mmHg 39%

    20 January, Saturday

    Time Temperature Precipitation Wind Pressure Humidity
    00:00 +29°C° 0 mm 4 mps 758 mmHg 40%
    01:00 +29°C° 0 mm 4 mps 757 mmHg 40%
    02:00 +28°C° 0 mm 5 mps 757 mmHg 40%
    03:00 +28°C° 0 mm 4 mps 757 mmHg 42%
    04:00 +27°C° 0 mm 4 mps 757 mmHg 43%
    05:00 +27°C° 0 mm 4 mps 758 mmHg 45%
    06:00 +28°C° 0 mm 5 mps 758 mmHg 42%
    07:00 +30°C° 0 mm 5 mps 758 mmHg 39%
    08:00 +32°C° 0 mm 5 mps 758 mmHg 36%
    09:00 +34°C° 0 mm 5 mps 758 mmHg 32%
    10:00 +36°C° 0 mm 5 mps 758 mmHg 29%
    11:00 +38°C° 0 mm 4 mps 758 mmHg 25%
    12:00 +40°C° 0 mm 4 mps 757 mmHg 23%
    13:00 +40°C° 0 mm 3 mps 756 mmHg 21%
    14:00 +42°C° 0 mm 3 mps 755 mmHg 20%
    15:00 +40°C° 0 mm 3 mps 755 mmHg 20%
    16:00 +40°C° 0 mm 3 mps 755 mmHg 21%
    17:00 +39°C° 0 mm 3 mps 755 mmHg 21%
    18:00 +37°C° 0 mm 3 mps 755 mmHg 25%
    19:00 +35°C° 0 mm 3 mps 755 mmHg 30%
    20:00 +33°C° 0 mm 3 mps 755 mmHg 34%
    21:00 +33°C° 0 mm 4 mps 755 mmHg 35%
    22:00 +32°C° 0 mm 4 mps 755 mmHg 37%
    23:00 +32°C° 0 mm 5 mps 755 mmHg 38%

    21 January, Sunday

    Time Temperature Precipitation Wind Pressure Humidity
    00:00 +30°C° 0 mm 5 mps 755 mmHg 39%
    01:00 +30°C° 0 mm 5 mps 755 mmHg 40%
    02:00 +29°C° 0 mm 4 mps 755 mmHg 40%
    03:00 +28°C° 0 mm 4 mps 755 mmHg 42%
    04:00 +28°C° 0 mm 4 mps 755 mmHg 45%
    05:00 +27°C° 0 mm 4 mps 755 mmHg 47%
    06:00 +28°C° 0 mm 4 mps 755 mmHg 46%
    07:00 +30°C° 0 mm 4 mps 755 mmHg 44%
    08:00 +32°C° 0 mm 4 mps 756 mmHg 43%
    09:00 +33°C° 0 mm 4 mps 755 mmHg 38%
    10:00 +35°C° 0 mm 4 mps 755 mmHg 32%
    11:00 +37°C° 0 mm 4 mps 754 mmHg 27%
    12:00 +37°C° 0 mm 4 mps 754 mmHg 26%
    13:00 +37°C° 0 mm 4 mps 753 mmHg 25%
    14:00 +38°C° 0 mm 4 mps 753 mmHg 25%
    15:00 +37°C° 0 mm 5 mps 753 mmHg 27%
    16:00 +36°C° 0 mm 5 mps 753 mmHg 29%
    17:00 +35°C° 0 mm 5 mps 753 mmHg 31%
    18:00 +34°C° 0 mm 4 mps 753 mmHg 35%
    19:00 +33°C° 0 mm 3 mps 753 mmHg 39%
    20:00 +30°C° 0 mm 3 mps 753 mmHg 43%
    21:00 +29°C° 0 mm 3 mps 753 mmHg 45%
    22:00 +29°C° 0 mm 3 mps 753 mmHg 46%
    23:00 +28°C° 0 mm 3 mps 753 mmHg 47%
    Show more